Theta_e
323 325 325 327 332 337 339 340 338 335 332 332 334 339 344 343 350 361 352 346 345 353 353 349 346 346 347 346 342 338 336 338 336 336 337 337 337 337 338 343 346 344 342 338 329 322 318 320 324
322 324 326 329 335 340 340 338 337 336 333 333 334 336 339 347 346 351 352 345 346 353 353 352 345 346 346 347 345 345 340 340 336 336 337 337 336 336 336 340 342 342 337 329 321 317 319 321 325
322 324 328 331 333 339 340 338 336 334 333 334 335 338 341 345 345 351 349 346 348 352 352 353 345 345 345 346 347 347 345 343 337 336 338 337 336 335 336 339 338 335 330 323 318 317 319 324 330
323 326 328 331 333 334 336 336 333 333 333 333 334 337 344 347 350 351 347 347 349 350 350 356 345 345 344 344 345 348 347 346 339 337 339 339 337 334 335 335 334 330 325 320 317 317 319 325 331
322 326 331 333 333 333 332 332 332 333 333 333 334 335 341 343 349 348 348 348 349 349 350 355 345 343 343 343 344 345 347 347 342 338 340 341 338 335 334 333 331 326 322 319 317 316 316 319 325
324 327 331 334 335 334 331 330 331 332 332 331 331 333 335 332 346 349 349 350 350 349 349 356 345 343 343 344 344 346 347 347 345 339 342 343 339 335 334 332 329 325 322 319 317 316 315 315 315
323 326 330 332 334 334 332 330 330 331 332 331 330 331 333 332 335 347 350 351 349 349 349 355 350 346 343 343 345 346 347 347 347 341 345 346 340 336 334 331 328 325 322 319 318 318 318 319 319
323 325 327 329 331 332 331 330 329 329 330 329 328 331 333 330 329 339 346 349 349 348 348 353 350 348 348 349 345 348 348 348 347 345 346 346 340 337 334 332 329 324 321 318 318 318 319 319 320
321 323 326 326 328 329 329 329 329 328 327 328 328 328 329 327 326 329 340 345 347 347 347 350 350 348 346 345 348 344 347 348 347 346 346 346 345 345 344 337 338 324 322 320 318 319 319 319 319
320 320 321 322 323 323 323 326 327 327 327 325 326 325 325 325 326 327 330 339 345 346 346 348 350 349 348 345 347 346 347 349 350 350 350 348 343 342 340 338 334 336 322 321 319 320 320 319 328
320 320 320 321 322 322 322 322 322 322 323 324 324 325 324 324 325 327 327 328 334 343 346 346 350 351 350 347 346 348 344 344 344 344 345 346 342 341 340 339 340 338 331 333 327 328 329 330 331
320 321 320 321 322 321 321 321 321 321 321 322 322 322 322 323 324 325 327 328 329 336 345 346 348 352 352 348 346 348 345 343 341 342 343 344 344 342 341 338 341 336 333 332 333 332 332 334 336
320 320 320 321 320 319 319 319 320 320 320 320 320 321 321 321 322 323 325 327 327 331 342 347 348 352 354 353 349 348 347 343 341 340 343 343 343 343 341 340 338 337 334 336 334 335 336 337 342
319 319 319 319 319 319 318 318 318 319 320 320 320 321 321 321 322 322 324 326 327 328 331 345 348 351 355 356 354 351 350 345 342 341 341 344 345 343 342 341 338 337 337 336 337 336 336 337 342
318 318 318 318 318 318 319 318 319 319 319 319 320 320 321 321 321 322 322 324 326 327 330 332 348 351 354 357 355 354 350 349 345 344 342 345 347 345 342 341 340 339 338 337 337 337 338 339 342
318 318 319 320 319 318 318 319 319 320 319 319 319 320 320 320 321 321 321 322 323 325 328 335 342 347 353 356 357 353 353 350 348 345 344 346 346 345 344 341 341 340 339 339 339 339 336 337 339
319 318 319 319 319 318 318 318 319 319 319 320 320 321 321 320 321 321 321 321 322 323 325 326 329 338 347 355 356 356 354 353 350 348 346 348 348 346 345 341 340 340 340 339 338 336 336 336 338
319 319 319 318 319 318 318 318 319 320 320 321 321 321 320 320 320 320 320 321 321 322 323 327 329 331 342 350 356 355 355 355 352 350 349 348 350 350 345 344 340 341 342 341 338 337 337 336 336
318 318 319 319 318 318 320 320 320 320 321 321 321 321 322 322 322 321 320 320 321 322 323 325 328 332 334 345 349 352 354 353 354 353 351 349 351 350 350 345 344 344 342 342 341 341 340 340 338
318 318 319 319 319 320 320 321 321 321 321 321 321 321 321 321 321 321 321 321 321 321 323 324 326 328 332 334 345 347 351 351 353 353 352 352 352 351 351 349 346 347 347 345 340 345 346 344 341
319 319 320 320 320 320 320 321 321 321 321 321 321 321 321 321 322 322 322 321 321 321 322 322 324 327 328 332 333 342 351 352 348 350 354 352 352 352 352 350 350 348 346 345 350 348 347 345 343
320 319 318 318 319 320 321 323 323 323 323 323 323 323 322 323 321 321 321 321 320 321 321 321 322 323 324 329 330 331 337 347 346 346 349 352 352 352 351 350 350 340 343 342 346 349 348 345 343
318 318 319 319 321 322 322 323 323 323 324 324 323 324 322 322 321 321 321 319 320 320 321 321 323 326 325 325 330 332 334 336 342 344 346 350 352 352 351 351 351 343 344 346 344 347 348 347 342
318 319 320 321 321 324 324 325 325 325 324 324 324 322 321 319 319 320 319 319 319 320 321 321 323 326 326 326 328 336 339 341 343 343 345 350 350 351 351 350 351 351 347 344 347 348 350 346 345
319 320 323 325 326 326 326 326 326 325 324 323 323 322 319 319 320 319 319 319 318 319 320 321 322 323 326 327 328 331 336 342 346 348 347 347 350 351 351 350 350 351 350 347 349 350 350 349 347
321 322 325 331 328 327 325 327 326 324 323 322 322 320 319 319 319 318 318 318 317 318 319 320 321 322 324 326 328 329 333 336 343 347 349 348 348 350 350 352 350 350 350 349 349 350 350 349 348
321 323 322 325 326 328 326 326 325 324 324 321 318 317 319 319 317 318 317 317 318 318 319 320 321 322 324 325 329 330 331 337 338 343 344 346 348 347 350 351 350 349 348 346 348 349 350 348 347
320 321 324 326 333 330 326 327 326 323 322 320 318 317 317 316 317 317 317 317 317 317 319 319 321 321 324 326 328 328 330 334 338 344 344 342 345 345 340 346 348 343 334 329 334 346 347 347 347
321 323 322 322 324 332 329 326 323 321 321 320 319 317 316 317 317 316 318 318 317 318 319 320 320 322 322 324 328 330 332 333 338 340 343 343 344 343 342 344 344 341 324 325 336 342 344 344 346
321 321 321 332 331 328 333 331 323 323 319 317 316 316 317 317 316 317 318 318 317 317 318 318 320 321 322 321 324 325 328 332 335 337 340 341 340 342 339 337 334 341 341 341 341 342 339 341 341
Wind_Speed
15 14 12 13 8 8 17 18 6 4 8 3 3 9 11 11 16 5 6 6 18 22 25 26 26 26 25 24 24 23 24 23 24 23 22 20 18 18 17 16 14 12 10 9 8 9 9 10 11
14 14 15 9 9 14 13 6 8 4 6 4 3 6 7 13 12 9 11 10 17 20 24 24 26 25 24 24 25 24 24 24 24 23 21 20 19 18 17 16 14 11 9 8 9 9 9 10 10
14 14 10 13 13 16 9 4 8 5 5 1 2 6 6 11 8 7 14 12 16 17 21 23 29 26 25 24 24 24 24 24 25 24 22 20 19 17 16 15 13 11 10 9 9 9 10 10 9
14 11 9 11 18 18 10 6 7 6 3 1 1 10 17 12 7 9 11 13 15 16 18 20 29 27 25 24 23 24 25 25 25 24 22 20 19 17 16 15 13 12 11 10 9 8 8 8 8
14 8 12 16 20 15 5 5 3 5 2 3 3 6 16 10 10 12 9 10 12 15 17 17 28 26 25 24 23 24 27 26 25 24 22 19 18 17 16 15 14 12 11 11 10 9 8 8 8
10 11 14 16 19 16 7 8 8 8 2 4 9 1 15 11 8 7 7 7 10 14 16 17 28 26 24 23 22 23 28 29 26 25 22 19 18 17 16 15 14 13 12 11 10 10 9 8 8
15 13 17 21 18 15 13 12 12 12 8 4 5 9 11 11 7 3 4 6 9 13 15 15 22 25 25 22 22 23 27 28 27 25 23 19 17 17 16 16 14 13 12 11 10 9 9 8 8
13 14 24 19 19 20 10 13 9 7 11 8 1 6 5 10 5 2 5 7 9 12 14 14 19 21 21 19 22 23 26 27 27 26 24 21 18 17 16 16 15 14 13 12 11 11 10 10 10
9 13 17 22 24 16 7 9 15 3 8 9 10 8 9 7 7 4 5 8 9 12 14 15 17 19 20 20 20 24 24 26 26 26 25 23 15 14 13 14 14 14 13 13 12 12 11 10 11
11 12 20 19 15 13 14 17 17 8 13 14 14 12 13 11 9 8 8 10 11 12 14 15 16 19 20 20 19 21 20 21 21 20 19 20 17 17 16 15 16 14 15 14 13 13 12 12 10
18 17 16 16 9 9 14 16 10 12 17 16 14 13 9 12 13 12 11 13 14 16 16 17 18 18 20 20 20 18 22 22 23 24 23 20 20 19 17 15 14 13 16 12 14 13 13 12 11
17 17 19 15 7 10 15 15 16 14 16 14 11 11 13 12 13 14 17 18 16 16 17 17 18 20 22 21 21 19 23 23 23 24 25 22 23 21 19 19 15 17 15 15 15 13 14 12 12
18 17 14 15 13 14 15 15 15 16 12 8 12 11 11 13 14 15 16 17 17 15 18 20 19 22 22 23 21 22 23 24 24 24 26 27 25 22 21 20 18 17 17 16 16 14 12 12 12
12 18 16 12 15 15 16 16 16 15 8 12 12 12 13 13 12 11 11 13 14 13 15 20 21 22 23 25 25 19 20 23 24 24 26 31 26 25 23 21 21 18 18 17 16 14 12 12 12
15 13 14 16 15 15 12 17 19 18 13 12 11 11 11 11 12 12 12 9 8 11 13 17 19 21 24 24 25 24 25 25 22 24 26 30 29 27 28 25 22 20 18 15 14 12 12 12 12
14 15 15 18 20 16 8 16 10 5 4 11 12 10 10 11 12 11 7 8 9 7 7 8 15 20 23 25 24 27 27 27 27 27 26 30 34 27 26 23 22 22 18 17 17 16 16 14 14
13 14 19 16 10 11 13 13 13 5 9 12 12 12 13 13 12 11 13 13 10 7 7 9 12 18 20 26 27 25 26 29 29 29 32 32 34 35 27 27 22 21 20 20 20 18 17 15 15
13 17 15 13 10 11 15 17 15 11 12 13 13 12 12 12 13 14 14 13 14 10 9 10 12 15 21 20 23 24 25 28 31 31 30 34 35 32 36 30 29 25 20 21 22 22 20 19 16
16 13 13 8 9 9 13 16 16 15 12 16 15 15 13 12 11 12 14 14 14 14 13 13 13 12 16 20 24 24 27 29 31 31 30 30 33 35 35 36 35 35 37 33 28 27 26 21 20
13 14 16 15 12 12 16 19 16 17 16 18 16 16 14 12 11 8 10 13 15 18 19 18 16 14 13 19 23 27 24 28 30 31 33 29 30 35 36 35 32 33 32 34 36 33 24 22 18
15 16 16 15 12 11 16 21 21 20 24 18 13 13 13 10 9 8 11 14 17 19 21 24 21 17 17 16 20 23 26 28 28 29 29 35 34 34 35 36 33 32 32 24 24 23 23 17 21
16 15 15 15 14 14 14 14 15 12 12 16 15 12 13 6 7 9 10 14 14 17 20 20 24 25 24 18 22 25 27 26 31 29 30 31 36 36 36 38 40 32 29 27 25 27 29 22 21
15 12 11 12 16 17 19 13 15 14 17 14 9 16 3 9 6 10 13 17 19 21 18 21 20 21 24 25 24 26 27 31 31 30 30 30 31 38 38 38 38 39 34 30 31 26 26 30 24
10 11 14 16 16 17 20 18 17 17 11 6 11 2 7 10 9 11 14 17 20 21 18 18 21 20 22 24 26 26 29 30 28 31 31 30 34 34 39 39 38 37 39 37 33 32 33 31 25
13 12 12 15 14 17 18 17 14 6 7 7 10 10 9 11 9 10 12 14 17 20 22 20 20 22 22 23 27 29 30 31 34 33 31 33 33 33 36 43 42 43 42 41 35 33 28 27 24
17 16 11 14 16 18 21 17 9 5 5 8 10 6 8 10 11 13 16 18 19 19 21 23 22 25 22 25 26 29 30 31 32 36 36 32 33 34 40 48 47 43 44 40 34 29 26 25 25
14 16 15 18 19 17 18 25 22 21 13 5 6 10 9 12 12 15 17 19 22 22 23 18 18 22 24 26 26 27 29 29 31 32 35 39 34 45 43 47 45 43 32 31 30 35 29 28 27
13 14 13 8 9 18 14 15 8 8 5 5 3 9 11 12 12 16 16 19 19 22 25 20 18 20 22 24 23 26 28 28 30 32 28 32 41 41 26 42 38 31 16 29 42 21 24 26 21
11 13 13 15 13 11 16 11 6 3 8 13 16 11 11 14 16 15 15 18 18 20 20 20 18 15 23 21 22 25 25 25 21 24 28 31 33 44 26 22 23 23 28 38 39 26 22 22 16
17 16 13 9 13 13 13 14 18 18 6 7 9 14 19 15 14 12 13 14 15 19 15 18 15 20 12 16 20 18 24 18 16 18 19 23 25 25 8 11 19 16 22 26 24 21 18 13 11
Wind_Direction
312 304 287 260 243 231 246 242 54 138 204 81 308 271 1 4 11 33 114 131 139 143 159 164 170 173 179 181 181 179 177 175 174 171 168 166 165 163 162 163 161 159 160 160 156 150 142 140 141
304 299 272 269 244 240 229 196 175 86 32 214 191 213 231 82 17 96 130 129 143 146 160 166 173 175 182 187 188 187 184 181 180 177 174 173 172 171 171 171 171 172 170 165 159 153 148 148 150
286 277 279 232 238 254 278 63 117 120 209 214 182 317 38 23 55 55 96 141 144 150 162 171 176 179 181 188 193 194 192 188 185 183 181 180 178 178 177 176 178 179 174 170 167 160 158 156 159
271 234 243 263 242 233 268 159 82 204 170 130 256 99 84 41 36 59 123 141 146 155 164 181 180 183 186 191 198 200 198 196 192 191 187 186 185 184 183 184 184 183 179 176 174 169 167 168 175
245 263 252 237 243 259 229 33 177 262 62 100 334 132 88 71 71 103 120 146 158 159 165 178 186 186 189 194 198 200 199 200 198 198 195 193 194 191 189 189 189 188 184 182 179 178 179 188 194
247 232 245 241 238 242 184 243 242 261 109 99 250 15 90 64 70 119 136 155 169 164 170 175 188 191 193 196 199 201 197 197 200 202 203 203 201 199 197 195 195 193 191 190 188 184 189 198 208
242 242 240 256 253 226 204 246 252 244 240 235 40 258 116 67 45 95 155 157 175 172 179 176 185 192 198 201 202 200 198 200 201 204 208 211 211 207 205 204 202 199 200 199 196 195 200 208 220
241 244 259 248 257 255 160 248 262 286 257 54 242 247 138 80 28 181 193 173 184 176 183 178 186 193 195 202 207 205 202 203 205 208 211 213 214 216 214 210 211 209 208 207 207 206 210 219 229
240 255 243 243 253 253 252 233 256 220 283 267 270 288 322 326 314 271 234 196 196 185 190 186 187 195 198 203 210 209 209 211 211 212 215 214 208 218 218 219 224 223 218 217 217 220 223 231 241
217 228 242 255 270 265 267 246 248 225 244 259 247 244 254 256 265 269 269 222 211 202 202 195 196 195 200 204 203 205 208 208 210 207 210 208 213 212 212 218 223 229 228 227 227 230 231 234 245
210 239 241 251 271 270 278 278 266 262 258 255 267 274 297 278 265 262 253 260 260 212 207 205 196 199 202 205 201 205 211 211 212 210 208 209 209 211 209 209 214 223 231 227 234 236 234 236 243
236 229 243 265 287 236 255 258 260 259 262 275 294 285 272 266 261 258 257 255 246 244 217 214 202 203 205 206 206 206 209 210 211 212 206 205 207 210 209 207 208 205 213 219 225 228 232 235 246
218 247 231 250 248 256 269 263 265 264 259 259 263 261 256 259 261 257 253 255 259 275 211 216 214 205 207 221 211 212 209 210 211 207 207 204 203 206 209 212 211 205 210 210 219 229 229 241 246
210 241 249 240 248 238 246 255 257 248 231 250 244 257 260 258 257 258 266 268 258 254 260 223 212 214 210 212 224 218 213 218 212 208 205 205 203 203 204 211 212 213 213 215 216 220 231 243 252
247 253 237 245 241 245 251 262 252 240 246 250 254 251 259 263 265 264 252 274 277 267 251 255 214 222 214 218 219 224 219 216 212 215 213 207 206 205 202 204 206 213 215 220 220 219 221 238 245
232 230 249 228 216 228 214 259 263 108 196 228 236 259 251 255 259 259 255 252 265 269 278 252 247 222 222 222 221 221 222 219 220 212 214 207 208 207 203 208 207 200 205 213 220 218 225 222 237
209 244 227 244 173 241 198 258 210 165 232 255 260 251 246 237 235 247 255 250 252 268 274 261 252 248 230 222 224 224 226 224 219 220 212 209 205 204 206 202 206 206 203 209 218 226 228 225 228
223 215 239 253 185 204 249 240 253 224 239 246 245 247 253 255 257 247 251 269 271 278 291 286 273 268 242 238 220 229 229 229 227 227 221 212 209 205 203 203 202 199 208 220 221 222 223 224 232
293 287 296 263 232 243 263 275 271 267 254 252 250 253 251 246 249 254 256 259 276 289 296 295 297 289 273 237 234 226 230 228 229 228 227 218 209 206 206 206 203 190 191 207 222 219 216 220 223
260 258 258 261 265 259 268 267 268 262 256 255 263 266 261 259 253 276 311 316 301 294 297 294 290 281 270 258 240 244 232 235 228 226 223 226 215 209 210 208 209 207 203 200 210 206 208 219 220
240 251 263 265 275 260 265 265 253 247 245 249 267 266 268 272 280 331 315 308 302 297 297 291 290 283 275 266 267 255 238 244 237 229 222 219 219 212 212 213 217 209 211 209 202 201 208 205 219
246 240 243 255 262 262 266 282 274 276 259 217 217 237 243 251 315 307 298 296 305 302 298 297 292 290 282 262 259 261 261 242 237 235 226 218 214 216 214 216 220 223 217 211 206 204 206 194 222
256 275 272 269 267 277 266 264 266 252 248 234 232 237 245 267 296 292 304 307 308 302 305 306 302 295 273 271 265 265 257 251 249 243 235 222 214 210 216 219 219 219 215 210 212 203 204 208 211
279 265 261 264 262 259 261 261 268 261 276 266 201 276 327 317 306 299 301 307 298 308 302 307 311 299 288 280 270 263 258 260 249 238 236 223 215 215 212 221 217 218 216 211 208 201 203 205 207
224 256 266 260 246 256 257 247 258 310 284 223 274 308 310 301 298 293 308 306 315 308 306 304 304 308 303 292 269 261 259 256 249 249 243 232 214 207 214 215 214 212 213 206 201 196 194 194 203
256 246 258 269 273 287 295 279 270 291 264 278 264 284 282 288 287 303 306 299 303 314 312 301 307 302 305 299 288 263 257 253 249 243 241 244 233 206 211 209 214 208 209 201 192 190 195 196 200
261 253 296 294 283 279 276 279 276 269 215 236 246 241 257 263 294 297 292 300 303 302 306 303 305 311 303 305 293 274 258 250 253 250 241 236 245 226 209 207 203 207 206 219 207 183 181 202 201
257 286 278 259 271 266 267 279 270 341 295 264 255 270 283 283 286 289 305 300 305 302 297 285 307 312 309 312 301 279 259 248 249 249 246 240 236 256 253 207 204 200 173 228 261 205 194 208 200
243 246 248 265 256 265 280 273 308 262 314 304 305 300 301 288 282 309 302 302 303 298 305 308 306 316 321 322 310 315 276 261 247 252 244 233 233 241 242 220 192 186 149 174 224 225 197 202 200
268 270 270 248 269 251 264 267 276 283 284 288 277 268 264 291 296 285 296 301 297 299 302 306 310 321 321 326 322 335 330 283 261 245 238 231 222 235 227 162 223 182 175 185 191 196 208 187 191